VLG7DL LEBL-LIEE

Flight info

Callsign VLG7DL
Flight time 1h 1m
Altitude 34000
Route DIPES DCT TOSNU DCT LAPIT N725 OSPOK/N0445F350 DCT NOLVI DCT ORKUM/N0445F340 DCT ELSAG DCT ALG DCT ARSIK M731 TEKSA M732 KOVAS
Aircraft A320/M-SDE3FGHIRWY/LB1

Departure

Time 2026-05-04 17:21
Airport Josep Tarradellas Barcelona-El Prat Airport (LEBL)

Arrival

Time 2026-05-04 18:23
Airport Cagliari Elmas Airport (LIEE)
Time Latitude Longitude Altitude Speed Heading
2026-05-04 16:53 41.28611 2.07416 19 ft 0 kts 335°
2026-05-04 17:01 41.28610 2.07416 19 ft 0 kts 335°
2026-05-04 17:10 41.28549 2.07453 20 ft 4 kts 343°
2026-05-04 17:11 41.28525 2.07455 19 ft 4 kts 29°
2026-05-04 17:11 41.28508 2.07432 20 ft 3 kts 65°
2026-05-04 17:11 41.28501 2.07411 21 ft 0 kts 65°
2026-05-04 17:14 41.28523 2.07477 20 ft 8 kts 71°
2026-05-04 17:15 41.28482 2.07532 18 ft 11 kts 153°
2026-05-04 17:15 41.28512 2.07699 17 ft 12 kts 65°
2026-05-04 17:16 41.28586 2.07932 19 ft 16 kts 66°
2026-05-04 17:16 41.28745 2.08390 18 ft 21 kts 65°
2026-05-04 17:17 41.28804 2.08562 19 ft 21 kts 65°
2026-05-04 17:17 41.28996 2.09121 18 ft 22 kts 65°
2026-05-04 17:18 41.29061 2.09311 17 ft 23 kts 65°
2026-05-04 17:18 41.29193 2.09693 17 ft 18 kts 65°
2026-05-04 17:19 41.29269 2.09916 17 ft 10 kts 66°
2026-05-04 17:19 41.29169 2.09938 17 ft 11 kts 215°
2026-05-04 17:20 41.29066 2.09873 19 ft 0 kts 246°
2026-05-04 17:20 41.29053 2.09834 19 ft 12 kts 246°
2026-05-04 17:20 41.28924 2.09462 20 ft 78 kts 245°
2026-05-04 17:21 41.28183 2.07307 96 ft 164 kts 245°
2026-05-04 17:21 41.26666 2.05400 1343 ft 161 kts 187°
2026-05-04 17:22 41.25520 2.05424 1696 ft 173 kts 181°
2026-05-04 17:22 41.24273 2.05470 2075 ft 186 kts 180°
2026-05-04 17:23 41.20077 2.05818 3833 ft 210 kts 184°
2026-05-04 17:23 41.18605 2.05764 4577 ft 213 kts 185°
2026-05-04 17:23 41.15540 2.05607 5830 ft 231 kts 185°
2026-05-04 17:24 41.13913 2.05521 6571 ft 236 kts 186°
2026-05-04 17:24 41.08920 2.05277 9054 ft 242 kts 186°
2026-05-04 17:25 41.07228 2.05198 9920 ft 244 kts 187°
2026-05-04 17:25 41.03804 2.05033 11402 ft 248 kts 186°
2026-05-04 17:26 41.00326 2.05343 12801 ft 261 kts 165°
2026-05-04 17:26 40.96082 2.11161 13570 ft 336 kts 130°
2026-05-04 17:27 40.93247 2.16521 13921 ft 371 kts 130°
2026-05-04 17:27 40.90233 2.22202 14934 ft 382 kts 130°
2026-05-04 17:28 40.87838 2.28574 15880 ft 403 kts 105°
2026-05-04 17:29 40.89466 2.39568 17407 ft 424 kts 65°
2026-05-04 17:29 40.93285 2.50272 18882 ft 435 kts 66°
2026-05-04 17:30 40.97166 2.61289 20252 ft 446 kts 66°
2026-05-04 17:31 40.99796 2.68799 21092 ft 453 kts 66°
2026-05-04 17:31 41.03808 2.80271 22325 ft 463 kts 66°
2026-05-04 17:32 41.06532 2.88066 23118 ft 470 kts 66°
2026-05-04 17:33 41.10031 3.00206 24176 ft 474 kts 82°
2026-05-04 17:33 41.10383 3.04541 24521 ft 472 kts 92°
2026-05-04 17:34 41.09494 3.17515 25507 ft 474 kts 101°
2026-05-04 17:34 41.09120 3.21866 25845 ft 476 kts 101°
2026-05-04 17:35 41.07979 3.35033 26804 ft 484 kts 101°
2026-05-04 17:35 41.07193 3.43925 27461 ft 488 kts 101°
2026-05-04 17:35 41.06794 3.48402 27784 ft 490 kts 101°
2026-05-04 17:36 41.06384 3.52885 28225 ft 488 kts 103°
2026-05-04 17:36 41.05717 3.57262 28682 ft 483 kts 109°
2026-05-04 17:36 41.04947 3.61589 29147 ft 482 kts 109°
2026-05-04 17:36 41.04176 3.65919 29614 ft 481 kts 109°
2026-05-04 17:37 41.03410 3.70223 30083 ft 480 kts 109°
2026-05-04 17:37 41.02644 3.74523 30476 ft 479 kts 109°
2026-05-04 17:37 41.01876 3.78810 30853 ft 479 kts 109°
2026-05-04 17:37 41.01103 3.83100 31205 ft 479 kts 110°
2026-05-04 17:38 41.00326 3.87391 31549 ft 479 kts 110°
2026-05-04 17:38 40.99549 3.91673 31921 ft 479 kts 110°
2026-05-04 17:38 40.98770 3.95960 32303 ft 479 kts 110°
2026-05-04 17:38 40.97999 4.00188 32684 ft 478 kts 110°
2026-05-04 17:39 40.96437 4.08727 33457 ft 477 kts 110°
2026-05-04 17:39 40.95653 4.13000 33820 ft 478 kts 110°
2026-05-04 17:39 40.94866 4.17280 33909 ft 481 kts 110°
2026-05-04 17:40 40.93254 4.25987 33930 ft 491 kts 110°
2026-05-04 17:40 40.91636 4.34782 33934 ft 493 kts 110°
2026-05-04 17:41 40.90007 4.43583 33936 ft 493 kts 110°
2026-05-04 17:41 40.88373 4.52381 33937 ft 493 kts 111°
2026-05-04 17:42 40.87007 4.59689 33914 ft 493 kts 111°
2026-05-04 17:42 40.85515 4.68554 33932 ft 499 kts 103°
2026-05-04 17:43 40.84681 4.77673 33943 ft 500 kts 103°
2026-05-04 17:43 40.83841 4.86783 33948 ft 500 kts 103°
2026-05-04 17:44 40.82988 4.95898 33924 ft 500 kts 103°
2026-05-04 17:44 40.82128 5.04998 33951 ft 499 kts 103°
2026-05-04 17:45 40.81259 5.14091 33960 ft 499 kts 103°
2026-05-04 17:45 40.80384 5.23176 33966 ft 498 kts 103°
2026-05-04 17:46 40.79512 5.32244 33967 ft 498 kts 103°
2026-05-04 17:46 40.78629 5.41313 33958 ft 498 kts 102°
2026-05-04 17:47 40.77742 5.50371 33967 ft 497 kts 102°
2026-05-04 17:47 40.76843 5.59413 33970 ft 497 kts 102°
2026-05-04 17:48 40.75931 5.68445 33981 ft 497 kts 102°
2026-05-04 17:48 40.75019 5.77478 33975 ft 497 kts 102°
2026-05-04 17:49 40.74110 5.86509 33978 ft 496 kts 102°
2026-05-04 17:49 40.73186 5.95521 33986 ft 496 kts 102°
2026-05-04 17:50 40.72259 6.04464 33991 ft 496 kts 102°
2026-05-04 17:50 40.71314 6.13459 33980 ft 495 kts 102°
2026-05-04 17:51 40.70370 6.22444 33982 ft 495 kts 102°
2026-05-04 17:51 40.69428 6.31434 33986 ft 495 kts 102°
2026-05-04 17:52 40.68477 6.40419 34001 ft 495 kts 102°
2026-05-04 17:52 40.67504 6.49397 33980 ft 495 kts 102°
2026-05-04 17:53 40.66523 6.58379 33985 ft 496 kts 102°
2026-05-04 17:53 40.65535 6.67373 33993 ft 496 kts 102°
2026-05-04 17:54 40.64551 6.76374 33993 ft 497 kts 102°
2026-05-04 17:54 40.63559 6.85382 33989 ft 497 kts 102°
2026-05-04 17:55 40.62558 6.94387 33995 ft 498 kts 102°
2026-05-04 17:55 40.61536 7.03403 34010 ft 498 kts 102°
2026-05-04 17:56 40.60514 7.12423 34018 ft 498 kts 102°
2026-05-04 17:56 40.59489 7.21432 34024 ft 498 kts 102°
2026-05-04 17:57 40.58460 7.30429 34030 ft 498 kts 102°
2026-05-04 17:57 40.57426 7.39445 34030 ft 498 kts 102°
2026-05-04 17:58 40.56615 7.48433 34029 ft 501 kts 93°
2026-05-04 17:58 40.57204 7.57599 34027 ft 504 kts 85°
2026-05-04 17:59 40.58004 7.66756 34023 ft 504 kts 85°
2026-05-04 18:00 40.59179 7.80506 34030 ft 504 kts 85°
2026-05-04 18:00 40.59952 7.89652 34033 ft 504 kts 85°
2026-05-04 18:01 40.60708 7.98835 34020 ft 504 kts 85°
2026-05-04 18:01 40.61085 8.03426 33821 ft 505 kts 85°
2026-05-04 18:01 40.61465 8.08013 33550 ft 504 kts 85°
2026-05-04 18:02 40.62226 8.17186 33031 ft 504 kts 85°
2026-05-04 18:02 40.62602 8.21787 32769 ft 505 kts 85°
2026-05-04 18:02 40.62978 8.26398 32506 ft 506 kts 85°
2026-05-04 18:02 40.63294 8.31002 32246 ft 505 kts 91°
2026-05-04 18:03 40.63014 8.35572 31978 ft 498 kts 105°
2026-05-04 18:03 40.62047 8.39834 31726 ft 485 kts 118°
2026-05-04 18:03 40.60495 8.43667 31471 ft 466 kts 130°
2026-05-04 18:03 40.58494 8.46906 31222 ft 448 kts 141°
2026-05-04 18:04 40.56147 8.49516 30899 ft 441 kts 150°
2026-05-04 18:04 40.53489 8.51536 29900 ft 443 kts 162°
2026-05-04 18:04 40.47717 8.54340 28412 ft 439 kts 165°
2026-05-04 18:05 40.44868 8.55722 27853 ft 435 kts 165°
2026-05-04 18:05 40.42039 8.57105 27270 ft 431 kts 165°
2026-05-04 18:05 40.39243 8.58475 26692 ft 428 kts 165°
2026-05-04 18:05 40.36463 8.59833 26123 ft 425 kts 165°
2026-05-04 18:06 40.31080 8.62452 25792 ft 400 kts 166°
2026-05-04 18:06 40.28510 8.63700 25679 ft 388 kts 166°
2026-05-04 18:06 40.26010 8.64910 25543 ft 378 kts 166°
2026-05-04 18:07 40.23570 8.66091 25280 ft 372 kts 166°
2026-05-04 18:07 40.21161 8.67255 24829 ft 366 kts 166°
2026-05-04 18:07 40.18783 8.68399 24152 ft 362 kts 166°
2026-05-04 18:07 40.16435 8.69527 23476 ft 358 kts 166°
2026-05-04 18:08 40.14108 8.70642 22702 ft 354 kts 166°
2026-05-04 18:08 40.11838 8.71729 21997 ft 350 kts 166°
2026-05-04 18:08 40.09533 8.72834 21216 ft 347 kts 165°
2026-05-04 18:08 40.07276 8.73917 20518 ft 344 kts 165°
2026-05-04 18:09 40.02873 8.76030 19444 ft 330 kts 165°
2026-05-04 18:09 39.98774 8.78576 18642 ft 331 kts 152°
2026-05-04 18:10 39.96833 8.80207 18187 ft 333 kts 152°
2026-05-04 18:10 39.94882 8.81839 17735 ft 333 kts 152°
2026-05-04 18:10 39.92937 8.83463 17291 ft 332 kts 152°
2026-05-04 18:10 39.90999 8.85081 16824 ft 331 kts 152°
2026-05-04 18:11 39.89065 8.86693 16460 ft 328 kts 151°
2026-05-04 18:11 39.87144 8.88292 16141 ft 325 kts 152°
2026-05-04 18:11 39.85247 8.89869 15783 ft 323 kts 151°
2026-05-04 18:11 39.83358 8.91440 15431 ft 321 kts 151°
2026-05-04 18:12 39.81479 8.93002 15108 ft 319 kts 151°
2026-05-04 18:12 39.79624 8.94545 14611 ft 314 kts 150°
2026-05-04 18:12 39.77796 8.96067 14014 ft 311 kts 150°
2026-05-04 18:12 39.75981 8.97579 13369 ft 308 kts 150°
2026-05-04 18:13 39.74189 8.99073 12743 ft 304 kts 151°
2026-05-04 18:13 39.72420 9.00541 12167 ft 299 kts 151°
2026-05-04 18:13 39.68989 9.03385 11242 ft 285 kts 152°
2026-05-04 18:14 39.67335 9.04758 10802 ft 279 kts 152°
2026-05-04 18:14 39.65700 9.06057 10374 ft 270 kts 159°
2026-05-04 18:14 39.63973 9.06873 9940 ft 260 kts 172°
2026-05-04 18:15 39.60297 9.07162 8481 ft 269 kts 184°
2026-05-04 18:15 39.56549 9.07240 7345 ft 266 kts 183°
2026-05-04 18:15 39.54759 9.07276 7199 ft 246 kts 188°
2026-05-04 18:16 39.53150 9.06888 7106 ft 229 kts 203°
2026-05-04 18:16 39.51748 9.05994 6745 ft 222 kts 218°
2026-05-04 18:16 39.50525 9.04828 6415 ft 215 kts 219°
2026-05-04 18:17 39.48189 9.02620 5802 ft 202 kts 218°
2026-05-04 18:17 39.47060 9.01558 5472 ft 200 kts 218°
2026-05-04 18:17 39.44817 8.99445 4876 ft 198 kts 219°
2026-05-04 18:18 39.43736 8.98426 4608 ft 186 kts 220°
2026-05-04 18:18 39.42714 8.97467 4331 ft 179 kts 220°
2026-05-04 18:18 39.41711 8.96544 4167 ft 172 kts 210°
2026-05-04 18:18 39.40585 8.95895 4068 ft 182 kts 214°
2026-05-04 18:19 39.38587 8.93962 3368 ft 174 kts 221°
2026-05-04 18:19 39.37667 8.93045 3096 ft 164 kts 213°
2026-05-04 18:19 39.36568 8.92730 2824 ft 167 kts 175°
2026-05-04 18:20 39.35530 8.93406 2558 ft 171 kts 142°
2026-05-04 18:20 39.34622 8.94414 2190 ft 174 kts 142°
2026-05-04 18:20 39.33744 8.95427 2047 ft 163 kts 139°
2026-05-04 18:20 39.32967 8.96421 1776 ft 152 kts 138°
2026-05-04 18:21 39.32222 8.97352 1520 ft 147 kts 142°
2026-05-04 18:21 39.31443 8.98190 1361 ft 145 kts 143°
2026-05-04 18:21 39.30687 8.99029 1188 ft 142 kts 141°
2026-05-04 18:21 39.29966 8.99870 1019 ft 140 kts 141°
2026-05-04 18:22 39.29232 9.00692 825 ft 139 kts 140°
2026-05-04 18:22 39.28519 9.01525 649 ft 138 kts 139°
2026-05-04 18:22 39.27810 9.02356 463 ft 138 kts 139°
2026-05-04 18:22 39.27097 9.03176 301 ft 137 kts 139°
2026-05-04 18:23 39.26390 9.03989 126 ft 136 kts 138°
2026-05-04 18:23 39.25700 9.04783 17 ft 121 kts 138°
2026-05-04 18:23 39.25296 9.05253 14 ft 34 kts 137°
2026-05-04 18:23 39.25246 9.05311 14 ft 5 kts 137°
2026-05-04 18:24 39.25198 9.05368 15 ft 13 kts 137°
2026-05-04 18:24 39.25123 9.05455 15 ft 15 kts 137°
2026-05-04 18:24 39.25049 9.05554 17 ft 15 kts 112°
2026-05-04 18:24 39.25076 9.05668 17 ft 13 kts 59°
2026-05-04 18:25 39.25125 9.05720 15 ft 9 kts 351°
2026-05-04 18:25 39.25183 9.05662 15 ft 12 kts 317°
2026-05-04 18:25 39.25249 9.05585 15 ft 14 kts 318°
2026-05-04 18:25 39.25326 9.05496 15 ft 16 kts 317°
2026-05-04 18:26 39.25388 9.05451 15 ft 8 kts 24°
2026-05-04 18:26 39.25396 9.05524 15 ft 10 kts 99°
2026-05-04 18:26 39.25375 9.05615 16 ft 12 kts 120°
2026-05-04 18:26 39.25343 9.05682 15 ft 8 kts 85°
2026-05-04 18:27 39.25375 9.05744 15 ft 9 kts 54°
2026-05-04 18:27 39.25414 9.05809 15 ft 3 kts 52°
2026-05-04 18:27 39.25412 9.05835 15 ft 3 kts 129°
2026-05-04 18:27 39.25393 9.05854 15 ft 1 kts 142°
2026-05-04 18:28 39.25381 9.05866 15 ft 4 kts 144°
2026-05-04 18:28 39.25370 9.05877 15 ft 1 kts 141°
2026-05-04 18:28 39.25365 9.05882 15 ft 0 kts 141°
2026-05-04 18:28 39.25362 9.05886 15 ft 0 kts 141°